[[{"header":{"parameterUnit":"m.s-1","parameterCategory":1,"la1":30.2991,"la2":30.254,"lo1":-89.0895,"lo2":-89.0444,"dy":0.0017,"dx":0.0017,"nx":28,"ny":28,"refTime":"2025-03-28T09:00:00:Z","depth":0,"parameterNumber":2,"parameterNumberName":"U-component_of_WINDS"},"data":[0,0,0,0,0,0,0,0,0,0,0,0,0,0,0,0,0,0,0,0,0,0,0,0,0,0,0,0,0,0,0,0,0,0,0,0,0,0,0,0,0,0,0,0,0,0,0,0,0,0,0,0,0,0,0,0,0,0,-6.3705,-6.3706,0,-6.3805,-6.3807,-6.3808,-6.377,-6.3767,-6.3765,-6.3763,-6.3864,-6.3868,-6.3873,0,0,0,0,0,0,0,0,0,0,0,0,0,-6.3478,-6.3483,-6.3705,-6.3706,-6.3707,-6.3805,-6.3807,-6.3808,-6.377,-6.3767,-6.3764,-6.3762,-6.3862,-6.3868,-6.3874,0,0,0,0,0,0,0,0,0,0,0,0,0,-6.3578,-6.3484,-6.3704,-6.37,-6.3701,-6.3805,-6.3807,-6.3808,-6.377,-6.3767,-6.3764,-6.376,-6.386,-6.3867,-6.3874,-6.3988,0,0,-6.3897,-6.39,0,0,0,0,0,0,0,0,-6.3572,-6.3586,-6.3699,-6.3701,-6.3701,-6.3771,-6.3764,-6.3869,-6.3771,-6.3744,-6.3763,-6.3759,-6.3836,-6.3845,-6.3871,-6.3993,-6.3997,-6.3897,-6.3902,-6.3905,-6.3907,0,0,0,0,0,0,0,-6.3565,-6.3581,-6.3744,-6.3701,-6.3702,-6.3693,-6.3703,-6.3784,-6.3808,-6.3746,-6.3744,-6.3756,-6.3835,-6.3864,-6.3873,-6.3999,-6.3897,-6.3903,-6.3908,-6.3911,-6.4219,-6.4223,0,0,0,0,0,0,-6.3558,-6.3576,-6.3741,-6.3747,-6.3627,-6.37,-6.3711,-6.3752,-6.3807,-6.3812,-6.3759,-6.3754,-6.3854,-6.3865,-6.3877,-6.4013,-6.3905,-6.3911,-6.3916,-6.4216,-6.422,-6.4224,0,0,0,0,0,0,-6.3553,-6.3573,-6.3737,-6.3661,-6.3681,-6.3707,-6.3754,-6.3756,-6.3785,-6.3817,-6.3821,-6.3784,-6.3851,-6.3866,-6.3961,-6.4016,-6.3915,-6.3921,-6.4211,-6.4217,-6.4222,-6.4286,0,0,0,0,0,0,-6.3547,-6.3572,-6.3615,-6.3662,-6.3685,-6.382,-6.3757,-6.3761,-6.3798,-6.3792,-6.3841,-6.3846,-6.385,-6.395,-6.3968,-6.4024,-6.3927,-6.4206,-6.4214,-6.4221,-6.4279,-6.4294,-6.4306,0,0,0,0,0,-6.3539,-6.3629,-6.3618,-6.3638,-6.3741,-6.3824,-6.3837,-6.384,-6.3802,-6.3846,-6.3867,-6.3844,-6.4008,-6.396,-6.398,-6.4039,-6.4203,-6.4212,-6.422,-6.4273,-6.4291,-6.4305,0,0,0,0,0,0,-6.3586,-6.3635,-6.3623,-6.3731,-6.3774,-6.3817,-6.3872,-6.3858,-6.3912,-6.3904,-6.3905,-6.3917,-6.4014,-6.4036,-6.3983,-6.4152,-6.4099,-6.4112,-6.4133,-6.415,-6.4163,-6.4154,-6.3933,0,0,0,0,0,-6.361,-6.3674,-6.3712,-6.3804,-6.3826,-6.3846,-6.3882,-6.3881,-6.3925,-6.3942,-6.397,-6.4013,-6.4074,-6.4114,-6.4171,-6.4284,-6.4293,-6.4334,-6.4347,-6.4358,-6.4368,-6.4428,-6.4446,-6.4253,-6.4253,-6.4253,0,0,-6.3658,-6.3692,-6.3732,-6.3814,-6.3847,-6.3912,-6.3861,-6.3932,-6.398,-6.3953,-6.4043,-6.4066,-6.4114,-6.4218,-6.4265,-6.4239,-6.4424,-6.4369,-6.4377,-6.4382,-6.4439,-6.4457,-6.4474,-6.4259,-6.4258,-6.4257,0,0,-6.3778,-6.3812,-6.3891,-6.3926,-6.3976,-6.3989,-6.4009,-6.4055,-6.4069,-6.416,-6.4141,-6.4199,-6.4304,-6.4339,-6.437,-6.4507,-6.4487,-6.4526,-6.4593,-6.4652,-6.4667,-6.4681,-6.4728,-6.4745,-6.4536,-6.4537,-6.4537,0,-6.3831,-6.3929,-6.3933,-6.4007,-6.4043,-6.4023,-6.4103,-6.4136,-6.4203,-6.4229,-6.42,-6.4332,-6.4363,-6.4474,-6.4507,-6.4534,-6.4555,-6.4518,-6.4665,-6.4678,-6.4691,-6.4736,-6.4754,-6.4541,-6.454,-6.454,-6.4539,0,-6.3991,-6.406,-6.4118,-6.4184,-6.4227,-6.4304,-6.4319,-6.4362,-6.4359,-6.4375,-6.4468,-6.4505,-6.457,-6.4597,-6.4594,-6.4708,-6.4691,-6.4664,-6.461,-6.4713,-6.4755,-6.4773,-6.4547,-6.4545,-6.4544,-6.4543,0,0,-6.4141,-6.421,-6.4231,-6.4261,-6.4317,-6.4369,-6.4446,-6.451,-6.4546,-6.4595,-6.4657,-6.4748,-6.4723,-6.4759,-6.476,-6.4812,-6.4916,-6.4778,-6.478,-6.4801,-6.5043,-6.5061,-6.5081,-6.4905,-6.4909,-6.4911,-6.5038,0,-6.4264,-6.4397,-6.4404,-6.4525,-6.4588,-6.4571,-6.4637,-6.4678,-6.4696,-6.4752,-6.4771,-6.4835,-6.4799,-6.482,-6.4871,-6.4893,-6.4964,-6.4884,-6.4962,-6.4965,-6.4948,-6.5103,-6.5123,-6.5241,-6.5055,-6.5058,-6.506,0,-6.4425,-6.4479,-6.4606,-6.4653,-6.468,-6.4739,-6.4799,-6.4853,-6.49,-6.4909,-6.495,-6.4944,-6.5021,-6.4968,-6.5074,-6.5019,-6.5052,-6.5068,-6.5073,-6.5077,-6.5016,-6.511,-6.5279,-6.5295,-6.5086,-6.5084,-6.5082,0,-6.452,-6.4624,-6.4713,-6.4739,-6.4797,-6.4839,-6.4865,-6.4909,-6.4947,-6.5,-6.5024,-6.5086,-6.5118,-6.5166,-6.5176,-6.5136,-6.5282,-6.5229,-6.529,-6.529,-6.5319,-6.5316,-6.5492,-6.5345,-6.5344,-6.5344,-6.5344,0,-6.4655,-6.4733,-6.4756,-6.4811,-6.4898,-6.4906,-6.4991,-6.5014,-6.5054,-6.5112,-6.5102,-6.5157,-6.5169,-6.5227,-6.5236,-6.5321,-6.5337,-6.5345,-6.5346,-6.5345,-6.5343,-6.5364,-6.5355,-6.5349,-6.5348,-6.5347,-6.5346,0,-6.4774,-6.4793,-6.4889,-6.4936,-6.495,-6.5012,-6.5052,-6.5105,-6.5122,-6.5197,-6.5215,-6.5242,-6.5309,-6.5325,-6.5405,-6.5411,-6.5512,-6.5506,-6.5496,-6.5495,-6.5554,-6.5547,-6.5747,-6.5773,-6.5611,-6.5613,-6.5614,0,-6.4857,-6.4917,-6.4972,-6.5011,-6.5039,-6.5102,-6.5141,-6.5152,-6.5193,-6.5252,-6.5297,-6.5364,-6.5417,-6.5525,-6.5552,-6.5613,-6.5607,-6.5673,-6.5616,-6.5613,-6.5605,-6.5601,-6.5606,-6.5683,-6.5684,-6.5686,-6.5687,0,-6.5004,-6.5011,-6.5068,-6.513,-6.5177,-6.5226,-6.5273,-6.5305,-6.5322,-6.5369,-6.5438,-6.548,-6.5563,-6.5628,-6.569,-6.5716,-6.5704,-6.5706,-6.5722,-6.572,-6.5711,-6.5715,-6.5523,-6.57,-6.5699,-6.5698,-6.5697,-6.5697,-6.5106,-6.5158,-6.5205,-6.5269,-6.5306,-6.535,-6.5401,-6.5426,-6.5484,-6.5552,-6.5555,-6.563,-6.5676,-6.5758,-6.5789,-6.5847,-6.5827,-6.5852,-6.5857,-6.5863,-6.5867,-6.5704,-6.5859,-6.5858,-6.5858,-6.5858,-6.5857,0,-6.525,-6.528,-6.5339,-6.5405,-6.5456,-6.5443,-6.5494,-6.5537,-6.5603,-6.5647,-6.57,-6.578,-6.5844,-6.5877,-6.594,-6.5981,-6.5977,-6.5997,-6.5992,-6.5998,-6.5883,-6.5861,-6.5999,-6.5999,-6.5999,-6.5999,-6.5999,-6.5999,-6.5331,-6.5418,-6.543,-6.5536,-6.5565,-6.5638,-6.5669,-6.5709,-6.5744,-6.5834,-6.5887,-6.5908,-6.5948,-6.6014,-6.6073,-6.6081,-6.6103,-6.6126,-6.6131,-6.6021,-6.6007,-6.5993,-6.5972,-6.6131,-6.6131,-6.6241,-6.6242,-6.6243]},{"header":{"parameterUnit":"m.s-1","parameterCategory":1,"la1":30.2991,"la2":30.254,"lo1":-89.0895,"lo2":-89.0444,"dy":0.0017,"dx":0.0017,"nx":28,"ny":28,"refTime":"2025-03-28T09:00:00:Z","depth":0,"parameterNumber":3,"parameterNumberName":"V-component_of_WINDS"},"data":[0,0,0,0,0,0,0,0,0,0,0,0,0,0,0,0,0,0,0,0,0,0,0,0,0,0,0,0,0,0,0,0,0,0,0,0,0,0,0,0,0,0,0,0,0,0,0,0,0,0,0,0,0,0,0,0,0,0,5.14,5.1401,0,5.1536,5.1537,5.1539,5.1539,5.1537,5.1535,5.1534,5.167,5.1675,5.168,0,0,0,0,0,0,0,0,0,0,0,0,0,5.1138,5.1143,5.1399,5.1401,5.1403,5.1535,5.1537,5.1539,5.1539,5.1537,5.1535,5.1533,5.1668,5.1674,5.168,0,0,0,0,0,0,0,0,0,0,0,0,0,5.1261,5.1145,5.1399,5.1419,5.1422,5.1535,5.1537,5.154,5.1539,5.1537,5.1534,5.1532,5.1666,5.1674,5.1681,5.1783,0,0,5.1705,5.1709,0,0,0,0,0,0,0,0,5.1254,5.127,5.1414,5.1418,5.1421,5.1518,5.1495,5.1621,5.154,5.1495,5.1534,5.153,5.1621,5.1632,5.1664,5.1789,5.1795,5.1706,5.1711,5.1714,5.1717,0,0,0,0,0,0,0,5.1245,5.1264,5.1453,5.1416,5.1421,5.1421,5.1435,5.1519,5.1571,5.1499,5.1499,5.1515,5.1622,5.1656,5.1667,5.1797,5.1706,5.1713,5.1718,5.1721,5.2015,5.2018,0,0,0,0,0,0,5.1233,5.1257,5.1449,5.1457,5.1329,5.1427,5.1444,5.1489,5.157,5.158,5.1517,5.1515,5.1644,5.1658,5.1672,5.1798,5.1714,5.1722,5.1726,5.2012,5.2016,5.2019,0,0,0,0,0,0,5.1227,5.125,5.1443,5.1358,5.1382,5.1435,5.1486,5.1493,5.1527,5.1584,5.1593,5.1542,5.1642,5.166,5.1756,5.1802,5.1725,5.1732,5.2008,5.2013,5.2017,5.2049,0,0,0,0,0,0,5.122,5.1248,5.1287,5.1358,5.1387,5.1526,5.1489,5.1498,5.1541,5.1539,5.161,5.1619,5.1642,5.1744,5.1764,5.1812,5.1739,5.2004,5.201,5.2016,5.2044,5.2054,5.2063,0,0,0,0,0,5.1211,5.129,5.1289,5.1312,5.1437,5.1529,5.1545,5.157,5.1545,5.1585,5.1622,5.1617,5.1794,5.1754,5.1776,5.1827,5.2002,5.2009,5.2015,5.204,5.2052,5.2063,0,0,0,0,0,0,5.1221,5.1299,5.13,5.1404,5.146,5.1529,5.158,5.1582,5.1645,5.164,5.1668,5.1684,5.178,5.1812,5.1767,5.1931,5.1895,5.1906,5.1906,5.1918,5.1927,5.1918,5.1745,0,0,0,0,0,5.1236,5.1305,5.1369,5.1455,5.1483,5.1527,5.1567,5.1582,5.1641,5.1664,5.1708,5.1764,5.1832,5.1877,5.1942,5.2049,5.2065,5.2095,5.2104,5.2112,5.2122,5.2183,5.2197,5.2042,5.2042,5.2042,0,0,5.1267,5.1318,5.1359,5.1458,5.1503,5.1574,5.1546,5.1621,5.1674,5.1675,5.1769,5.1803,5.1867,5.1969,5.2016,5.2,5.2168,5.212,5.2126,5.2132,5.2191,5.2206,5.2219,5.2046,5.2046,5.2045,0,0,5.1359,5.1404,5.1482,5.1528,5.1597,5.1626,5.1645,5.1714,5.1737,5.1832,5.1835,5.1897,5.2014,5.2061,5.21,5.2212,5.221,5.2232,5.2282,5.2341,5.2353,5.2364,5.2406,5.242,5.2242,5.2242,5.2242,0,5.1389,5.1496,5.1522,5.1598,5.1642,5.1648,5.1727,5.177,5.1857,5.1887,5.1867,5.2016,5.2059,5.2174,5.2201,5.2232,5.2255,5.2225,5.2349,5.236,5.2371,5.2411,5.2427,5.2244,5.2244,5.2244,5.2244,0,5.1529,5.1603,5.1658,5.1744,5.1794,5.1871,5.1909,5.1956,5.1967,5.1998,5.2095,5.2148,5.2226,5.2253,5.2264,5.237,5.2358,5.2343,5.2308,5.2388,5.2426,5.2442,5.2248,5.2247,5.2246,5.2246,0,0,5.1632,5.1733,5.1753,5.1793,5.187,5.1927,5.2005,5.2083,5.2124,5.2183,5.225,5.235,5.2338,5.2382,5.2398,5.2449,5.2537,5.2429,5.2431,5.2449,5.266,5.2671,5.2689,5.2536,5.2539,5.2542,5.2655,0,5.1735,5.1875,5.1901,5.2023,5.2093,5.21,5.2168,5.2222,5.2254,5.2317,5.2351,5.2422,5.2399,5.2427,5.2478,5.2516,5.258,5.2508,5.2599,5.2602,5.2585,5.2709,5.2721,5.2825,5.267,5.2672,5.2674,0,5.1873,5.1938,5.2068,5.2138,5.2168,5.2229,5.2303,5.2363,5.2426,5.2445,5.2496,5.2506,5.2587,5.2547,5.2661,5.2611,5.265,5.2674,5.2679,5.2689,5.2644,5.2724,5.2859,5.2875,5.2698,5.2696,5.2694,0,5.1938,5.2058,5.2151,5.2185,5.2268,5.2311,5.2348,5.2408,5.2453,5.2518,5.2548,5.262,5.2661,5.2716,5.2746,5.2714,5.2858,5.282,5.2877,5.2876,5.2908,5.2906,5.3052,5.293,5.293,5.2929,5.2929,0,5.2051,5.213,5.2182,5.224,5.2329,5.2359,5.2446,5.2482,5.2535,5.26,5.2609,5.267,5.2705,5.277,5.2793,5.2885,5.2902,5.292,5.2926,5.2921,5.2919,5.2948,5.2942,5.2934,5.2933,5.2932,5.2931,0,5.2139,5.2177,5.228,5.2351,5.2371,5.2433,5.2494,5.2551,5.2582,5.2664,5.2685,5.2734,5.2812,5.2847,5.2942,5.2958,5.3063,5.3062,5.3042,5.3045,5.31,5.3095,5.3272,5.3297,5.3156,5.3158,5.3159,0,5.2209,5.2271,5.2349,5.2394,5.2432,5.2504,5.2551,5.2582,5.2631,5.2708,5.2755,5.2834,5.2899,5.3022,5.3066,5.314,5.3142,5.3199,5.3153,5.3147,5.3146,5.3143,5.315,5.3208,5.3209,5.321,5.3211,0,5.2331,5.2347,5.2416,5.2491,5.2548,5.2608,5.2668,5.2704,5.2744,5.2798,5.2879,5.2929,5.3028,5.3106,5.3183,5.322,5.3223,5.3225,5.3243,5.3239,5.3226,5.3236,5.3067,5.3221,5.322,5.322,5.3219,5.3219,5.2414,5.247,5.2535,5.2611,5.2659,5.2715,5.2772,5.2812,5.288,5.2964,5.2977,5.3064,5.3126,5.3229,5.3269,5.3337,5.3323,5.3348,5.3355,5.3361,5.3365,5.3214,5.3351,5.3351,5.335,5.335,5.335,0,5.2538,5.2581,5.265,5.2734,5.2795,5.2793,5.2859,5.2909,5.2986,5.3043,5.3108,5.3201,5.3277,5.3328,5.3405,5.345,5.3453,5.3469,5.3467,5.3476,5.3372,5.335,5.3465,5.3465,5.3465,5.3465,5.3465,5.3465,5.261,5.2706,5.273,5.2849,5.2891,5.2977,5.3015,5.3066,5.3113,5.3218,5.3282,5.3314,5.337,5.3451,5.3521,5.3534,5.3563,5.358,5.3592,5.3495,5.3483,5.3471,5.3451,5.3585,5.3586,5.3691,5.3692,5.3693]}]]